Valdosta, GA

7:34 PM EDT on August 30, 2016 (GMT -0400)
Moody Air Force Base

Weather History for KVAD - February, 2009

Change the Weather History Date:

Monday, February 23, 2009

  Actual Average Record
Temperature  
Mean Temperature 42 °F -  
Max Temperature 55 °F 66 °F 80 °F (2016)
Min Temperature 30 °F 45 °F 28 °F (1999)
Degree Days  
Heating Degree Days 22    
Moisture  
Dew Point 22 °F    
Average Humidity 49    
Maximum Humidity 73    
Minimum Humidity 23    
Precipitation  
Precipitation 0.00 in - - ()
Sea Level Pressure  
Sea Level Pressure 30.40 in    
Wind  
Wind Speed 6 mph (North)    
Max Wind Speed 14 mph    
Max Gust Speed -    
Visibility 10 miles    
Events      
Averages and records for this station are not official NWS values.
T = Trace of Precipitation, MM = Missing Value Source: NWS Daily Summary

Daily Weather History Graph

Daily Weather History Graph

Search for Another Location

Airport or City:

Trip Planner

Search our weather history database for the weather conditions in past years. The results will help you decide how hot, cold, wet, or windy it might be!

Date:

Astronomy

Feb. 23, 2009 Rise Set
Actual Time 7:05 AM EST 6:26 PM EST
Civil Twilight 6:41 AM EST 6:51 PM EST
Nautical Twilight 6:13 AM EST 7:19 PM EST
Astronomical Twilight 5:45 AM EST 7:47 PM EST
Moon 6:12 AM EST (2/23) 5:22 PM EST (2/23)
Length of Visible Light 12h 10m
Length of Day
11h 21m
Waning Crescent, 2% of the Moon is Illuminated
Feb 23
Waning Crescent
Feb 24
New
Mar 4
First Quarter
Mar 10
Full
Mar 18
Last Quarter

Hourly Weather History & Observations

Time (EST) Temp. Windchill Dew Point Humidity Pressure Visibility Wind Dir Wind Speed Gust Speed Precip Events Conditions
12:55 AM 37.0 °F 34.5 °F 23.4 °F 58% 30.39 in 10.0 mi North 3.5 mph - N/A   Clear
1:55 AM 35.2 °F 28.8 °F 23.5 °F 62% 30.39 in 10.0 mi North 8.1 mph - N/A   Clear
2:55 AM 34.5 °F 27.9 °F 22.8 °F 62% 30.39 in 10.0 mi North 8.1 mph - N/A   Clear
3:55 AM 33.4 °F 27.3 °F 22.3 °F 64% 30.39 in 10.0 mi North 6.9 mph - N/A   Clear
4:55 AM 33.1 °F 25.5 °F 21.2 °F 62% 30.40 in 10.0 mi NNE 9.2 mph - N/A   Clear
5:55 AM 31.8 °F 23.3 °F 20.8 °F 64% 30.43 in 10.0 mi North 10.4 mph - N/A   Clear
6:55 AM 30.9 °F 22.2 °F 20.7 °F 66% 30.45 in 10.0 mi North 10.4 mph - N/A   Clear
7:55 AM 33.3 °F 25.1 °F 20.5 °F 59% 30.46 in 10.0 mi North 10.4 mph - N/A   Clear
8:55 AM 37.6 °F 29.1 °F 20.3 °F 50% 30.47 in 10.0 mi North 13.8 mph - N/A   Clear
9:55 AM 41.2 °F 36.0 °F 19.6 °F 42% 30.48 in 10.0 mi NNE 8.1 mph - N/A   Clear
10:55 AM 44.1 °F 40.1 °F 19.4 °F 37% 30.48 in 10.0 mi NE 6.9 mph - N/A   Clear
11:55 AM 47.3 °F - 19.8 °F 34% 30.45 in 10.0 mi Calm Calm - N/A   Clear
12:55 PM 50.7 °F - 18.5 °F 28% 30.43 in 10.0 mi NNW 8.1 mph - N/A   Clear
1:55 PM 52.5 °F - 17.8 °F 25% 30.40 in 10.0 mi North 5.8 mph - N/A   Clear
2:55 PM 54.5 °F - 19.2 °F 25% 30.38 in 10.0 mi North 9.2 mph - N/A   Clear
3:55 PM 55.2 °F - 17.8 °F 23% 30.36 in 10.0 mi North 6.9 mph - N/A   Clear
4:55 PM 54.9 °F - 18.9 °F 24% 30.35 in 10.0 mi WNW 4.6 mph - N/A   Clear
5:55 PM 52.5 °F - 19.8 °F 28% 30.34 in 10.0 mi NNW 6.9 mph - N/A   Clear
6:55 PM 47.8 °F - 24.8 °F 41% 30.35 in 10.0 mi NW 3.5 mph - N/A   Clear
7:55 PM 41.0 °F - 29.7 °F 64% 30.37 in 10.0 mi Calm Calm - N/A   Clear
8:55 PM 38.3 °F - 27.7 °F 66% 30.37 in 10.0 mi Calm Calm - N/A   Clear
9:55 PM 38.7 °F - 25.7 °F 60% 30.38 in 10.0 mi Calm Calm - N/A   Clear
10:55 PM 36.0 °F - 25.9 °F 67% 30.38 in 10.0 mi Calm Calm - N/A   Clear
11:55 PM 35.2 °F - 27.3 °F 73% 30.36 in 10.0 mi Calm Calm - N/A   Clear